^^
Meteo Knjazevac Station Historical Data
Daily Summary for September 3, 2021 Units:  Metric    English   Both
Daily Weekly Monthly Yearly Custom
  High: Low: Average:
Temperature: 11.2 °C 10.7 °C 11 °C
Dew Point: 5.7 °C 4.8 °C 5.2 °C
Humidity: 69% 65% 67%
Wind Speed: 12.9km/h 0km/h 6.3km/h
Wind Gust: 27.4km/h - -
Wind- - SE
Pressure: 1006.3 hPa 1005.3 hPa -
Precipitation: 0 mm    
Historical Graphs
 
 
Tabular Data for September 3, 2021
Time Temperature Dew Point Pressure Wind Wind Speed Wind Gust Humidity Rainfall Rate (Hourly) solar Conditions
00:00 10.7 °C 4.8 °C 1006 hPa SE 3.2 km/h 12.9 km/h 67% 0 mm 0 W/m2
00:10 10.7 °C 4.8 °C 1006 hPa SSE 4.8 km/h 14.5 km/h 67% 0 mm 0 W/m2
00:20 10.7 °C 4.8 °C 1006.3 hPa South 11.3 km/h 22.5 km/h 67% 0 mm 0 W/m2
00:30 10.7 °C 4.8 °C 1006 hPa South 9.7 km/h 19.3 km/h 67% 0 mm 0 W/m2
00:40 10.7 °C 4.9 °C 1005.6 hPa SSE 9.7 km/h 25.7 km/h 67% 0 mm 0 W/m2
00:50 10.8 °C 4.9 °C 1005.6 hPa SSE 12.9 km/h 27.4 km/h 67% 0 mm 0 W/m2
01:00 11 °C 5.1 °C 1005.6 hPa SSE 9.7 km/h 24.1 km/h 67% 0 mm 0 W/m2
01:10 11.1 °C 5 °C 1005.6 hPa SE 12.9 km/h 22.5 km/h 66% 0 mm 0 W/m2
01:20 11.1 °C 5.2 °C 1005.6 hPa SE 11.3 km/h 24.1 km/h 67% 0 mm 0 W/m2
01:30 11.2 °C 4.8 °C 1005.6 hPa SE 9.7 km/h 24.1 km/h 65% 0 mm 0 W/m2
01:40 11.2 °C 4.8 °C 1006 hPa SE 8 km/h 19.3 km/h 65% 0 mm 0 W/m2
01:50 11.1 °C 5.2 °C 1005.6 hPa East 9.7 km/h 16.1 km/h 67% 0 mm 0 W/m2
02:00 11 °C 5.1 °C 1005.6 hPa ENE 3.2 km/h 19.3 km/h 67% 0 mm 0 W/m2
02:10 11 °C 5.1 °C 1005.6 hPa ESE 4.8 km/h 11.3 km/h 67% 0 mm 0 W/m2
02:20 10.9 °C 5.2 °C 1005.3 hPa NNE 4.8 km/h 6.4 km/h 68% 0 mm 0 W/m2
02:30 10.9 °C 5.2 °C 1005.6 hPa East 4.8 km/h 12.9 km/h 68% 0 mm 0 W/m2
02:40 11 °C 5.3 °C 1005.3 hPa SE 3.2 km/h 11.3 km/h 68% 0 mm 0 W/m2
02:50 11.2 °C 5.3 °C 1005.3 hPa SE 3.2 km/h 14.5 km/h 67% 0 mm 0 W/m2
03:00 11.2 °C 5.3 °C 1005.6 hPa East 4.8 km/h 11.3 km/h 67% 0 mm 0 W/m2
03:10 11.2 °C 5.5 °C 1005.6 hPa Calm   9.7 km/h 68% 0 mm 0 W/m2
03:20 11.2 °C 5.4 °C 1005.3 hPa NNE 3.2 km/h 6.4 km/h 68% 0 mm 0 W/m2
03:30 11.2 °C 5.5 °C 1005.3 hPa ENE 1.6 km/h 9.7 km/h 68% 0 mm 0 W/m2
03:40 11.1 °C 5.6 °C 1005.3 hPa West 1.6 km/h 11.3 km/h 69% 0 mm 0 W/m2
03:50 11.2 °C 5.7 °C 1005.3 hPa SSE 4.8 km/h 11.3 km/h 69% 0 mm 0 W/m2
04:00 11.1 °C 5.4 °C 1005.6 hPa South 3.2 km/h 9.7 km/h 68% 0 mm 0 W/m2
Knjazevac, Serbia
Compliments of Weather Underground - 2 mb